When you browse on this site, cookies collect data to enhance your experience and personalize the content and advertising you see.
Visit our Privacy Policy to learn more. By continuing to use the site, you agree to this use of cookies and data.
  • en Suisse
  • Liste des pays
  • À 7 jours
  • Température de l'eau
  • Carte satellitaire
  • Carte météo
  • Widgets météo
  • user-avatar
    Se connecter

    Météo par heure à Yanliang

    Ce jour, 24 Juillet, Mercredi

    Heure Température Précipitation Vent Pression Humidité
    00:00 +30°C° 0 mm 2 m/s 720 mmHg 52%
    01:00 +30°C° 0 mm 2 m/s 720 mmHg 53%
    02:00 +29°C° 0 mm 2 m/s 720 mmHg 54%
    03:00 +29°C° 0 mm 2 m/s 719 mmHg 54%
    04:00 +29°C° 0 mm 2 m/s 719 mmHg 54%
    05:00 +30°C° 0 mm 2 m/s 720 mmHg 52%
    06:00 +31°C° 0 mm 2 m/s 720 mmHg 49%
    07:00 +32°C° 0 mm 2 m/s 720 mmHg 46%
    08:00 +35°C° 0 mm 2 m/s 720 mmHg 42%
    09:00 +36°C° 0 mm 2 m/s 720 mmHg 38%
    10:00 +38°C° 0 mm 2 m/s 721 mmHg 33%
    11:00 +39°C° 0 mm 1 m/s 720 mmHg 30%
    12:00 +41°C° 0 mm 1 m/s 720 mmHg 27%
    13:00 +42°C° 0 mm 1 m/s 720 mmHg 24%
    14:00 +42°C° 0 mm 2 m/s 719 mmHg 24%
    15:00 +41°C° 0 mm 2 m/s 719 mmHg 23%
    16:00 +42°C° 0 mm 3 m/s 719 mmHg 23%
    17:00 +39°C° 0 mm 3 m/s 719 mmHg 28%
    18:00 +37°C° 0 mm 2 m/s 719 mmHg 33%
    19:00 +35°C° 0 mm 2 m/s 719 mmHg 38%
    20:00 +34°C° 0 mm 1 m/s 719 mmHg 39%
    21:00 +33°C° 0 mm 1 m/s 720 mmHg 40%
    22:00 +32°C° 0 mm 1 m/s 720 mmHg 41%
    23:00 +32°C° 0 mm 1 m/s 720 mmHg 42%

    Demain, 25 Juillet, Jeudi

    Heure Température Précipitation Vent Pression Humidité
    00:00 +32°C° 0 mm 1 m/s 720 mmHg 42%
    01:00 +31°C° 0 mm 1 m/s 720 mmHg 43%
    02:00 +31°C° 0 mm 1 m/s 719 mmHg 44%
    03:00 +31°C° 0 mm 1 m/s 719 mmHg 45%
    04:00 +30°C° 0 mm 1 m/s 719 mmHg 46%
    05:00 +31°C° 0 mm 1 m/s 719 mmHg 44%
    06:00 +32°C° 0 mm 1 m/s 720 mmHg 43%
    07:00 +33°C° 0 mm 1 m/s 720 mmHg 41%
    08:00 +35°C° 0 mm 1 m/s 720 mmHg 38%
    09:00 +36°C° 0 mm 1 m/s 720 mmHg 34%
    10:00 +39°C° 0 mm 2 m/s 720 mmHg 30%
    11:00 +41°C° 0 mm 2 m/s 720 mmHg 28%
    12:00 +42°C° 0 mm 1 m/s 719 mmHg 25%
    13:00 +43°C° 0 mm 1 m/s 719 mmHg 22%
    14:00 +43°C° 0 mm 2 m/s 718 mmHg 23%
    15:00 +43°C° 0 mm 3 m/s 718 mmHg 24%
    16:00 +43°C° 0 mm 4 m/s 717 mmHg 24%
    17:00 +41°C° 0 mm 4 m/s 717 mmHg 27%
    18:00 +39°C° 0 mm 3 m/s 717 mmHg 30%
    19:00 +38°C° 0 mm 3 m/s 718 mmHg 33%
    20:00 +36°C° 0 mm 2 m/s 718 mmHg 38%
    21:00 +35°C° 0 mm 2 m/s 718 mmHg 43%
    22:00 +33°C° 0 mm 1 m/s 718 mmHg 48%
    23:00 +32°C° 0 mm 1 m/s 718 mmHg 49%

    Après-demain, 26 Juillet, Vendredi

    Heure Température Précipitation Vent Pression Humidité
    00:00 +32°C° 0 mm 1 m/s 718 mmHg 51%
    01:00 +31°C° 0 mm 1 m/s 717 mmHg 52%
    02:00 +31°C° 0 mm 1 m/s 717 mmHg 53%
    03:00 +30°C° 0 mm 1 m/s 717 mmHg 55%
    04:00 +30°C° 0 mm 1 m/s 717 mmHg 56%
    05:00 +31°C° 0 mm 1 m/s 717 mmHg 53%
    06:00 +32°C° 0 mm 2 m/s 718 mmHg 50%
    07:00 +34°C° 0 mm 2 m/s 718 mmHg 47%
    08:00 +35°C° 0 mm 2 m/s 718 mmHg 42%
    09:00 +37°C° 0 mm 2 m/s 718 mmHg 38%
    10:00 +39°C° 0 mm 2 m/s 718 mmHg 33%
    11:00 +40°C° 0 mm 2 m/s 717 mmHg 30%
    12:00 +41°C° 0 mm 2 m/s 716 mmHg 27%
    13:00 +43°C° 0 mm 2 m/s 716 mmHg 24%
    14:00 +43°C° 0 mm 2 m/s 715 mmHg 23%
    15:00 +45°C° 0 mm 2 m/s 715 mmHg 22%
    16:00 +45°C° 0 mm 2 m/s 714 mmHg 21%
    17:00 +43°C° 0 mm 3 m/s 714 mmHg 25%
    18:00 +40°C° 0 mm 3 m/s 714 mmHg 30%
    19:00 +38°C° 0 mm 4 m/s 714 mmHg 34%
    20:00 +37°C° 0 mm 3 m/s 715 mmHg 38%
    21:00 +36°C° 0 mm 3 m/s 715 mmHg 42%
    22:00 +35°C° 0 mm 3 m/s 715 mmHg 46%
    23:00 +35°C° 0 mm 2 m/s 715 mmHg 48%

    27 Juillet, Samedi

    Heure Température Précipitation Vent Pression Humidité
    00:00 +34°C° 0 mm 2 m/s 715 mmHg 51%
    01:00 +32°C° 0 mm 1 m/s 715 mmHg 53%
    02:00 +31°C° 0 mm 1 m/s 715 mmHg 56%
    03:00 +31°C° 0 mm 1 m/s 715 mmHg 59%
    04:00 +30°C° 0 mm 2 m/s 715 mmHg 62%
    05:00 +31°C° 0 mm 2 m/s 715 mmHg 59%
    06:00 +32°C° 0 mm 2 m/s 716 mmHg 57%
    07:00 +34°C° 0 mm 3 m/s 716 mmHg 55%
    08:00 +36°C° 0 mm 2 m/s 716 mmHg 50%
    09:00 +38°C° 0 mm 2 m/s 716 mmHg 45%
    10:00 +40°C° 0 mm 2 m/s 717 mmHg 39%
    11:00 +41°C° 0 mm 2 m/s 716 mmHg 35%
    12:00 +42°C° 0 mm 1 m/s 716 mmHg 31%
    13:00 +44°C° 0 mm 1 m/s 715 mmHg 26%
    14:00 +44°C° 0 mm 1 m/s 715 mmHg 25%
    15:00 +44°C° 0 mm 1 m/s 715 mmHg 23%
    16:00 +45°C° 0 mm 1 m/s 715 mmHg 21%
    17:00 +43°C° 0 mm 1 m/s 715 mmHg 24%
    18:00 +41°C° 0 mm 1 m/s 715 mmHg 26%
    19:00 +39°C° 0 mm 1 m/s 715 mmHg 29%
    20:00 +37°C° 0 mm 1 m/s 715 mmHg 34%
    21:00 +36°C° 0 mm 1 m/s 716 mmHg 38%
    22:00 +35°C° 0 mm 1 m/s 716 mmHg 43%
    23:00 +35°C° 0 mm 1 m/s 716 mmHg 45%

    28 Juillet, Dimanche

    Heure Température Précipitation Vent Pression Humidité
    00:00 +34°C° 0 mm 1 m/s 716 mmHg 46%
    01:00 +34°C° 0 mm 1 m/s 716 mmHg 48%
    02:00 +33°C° 0 mm 1 m/s 716 mmHg 51%
    03:00 +33°C° 0 mm 1 m/s 716 mmHg 54%
    04:00 +32°C° 0 mm 1 m/s 716 mmHg 56%
    05:00 +34°C° 0 mm 2 m/s 716 mmHg 55%
    06:00 +35°C° 0 mm 2 m/s 717 mmHg 54%
    07:00 +36°C° 0 mm 3 m/s 717 mmHg 52%
    08:00 +38°C° 0 mm 3 m/s 717 mmHg 47%
    09:00 +40°C° 0 mm 3 m/s 717 mmHg 42%
    10:00 +42°C° 0 mm 3 m/s 717 mmHg 37%
    11:00 +44°C° 0 mm 3 m/s 716 mmHg 33%
    12:00 +45°C° 0 mm 3 m/s 716 mmHg 30%
    13:00 +46°C° 0 mm 3 m/s 716 mmHg 26%
    14:00 +45°C° 0.2 mm 3 m/s 715 mmHg 29%
    15:00 +43°C° 0.2 mm 4 m/s 715 mmHg 33%
    16:00 +42°C° 0.2 mm 4 m/s 714 mmHg 37%
    17:00 +41°C° 0.3 mm 4 m/s 715 mmHg 39%
    18:00 +39°C° 0.3 mm 3 m/s 715 mmHg 42%
    19:00 +38°C° 0.3 mm 3 m/s 715 mmHg 44%
    20:00 +37°C° 0.7 mm 3 m/s 716 mmHg 49%
    21:00 +36°C° 0.7 mm 3 m/s 716 mmHg 53%
    22:00 +34°C° 0.7 mm 3 m/s 717 mmHg 58%
    23:00 +33°C° 3.4 mm 3 m/s 717 mmHg 65%

    29 Juillet, Lundi

    Heure Température Précipitation Vent Pression Humidité
    00:00 +31°C° 3.4 mm 2 m/s 717 mmHg 72%
    01:00 +30°C° 3.4 mm 2 m/s 717 mmHg 80%
    02:00 +30°C° 0.6 mm 2 m/s 717 mmHg 80%
    03:00 +29°C° 0.6 mm 1 m/s 718 mmHg 80%
    04:00 +29°C° 0.6 mm 1 m/s 718 mmHg 80%
    05:00 +30°C° 0.3 mm 1 m/s 718 mmHg 76%
    06:00 +30°C° 0.3 mm 2 m/s 719 mmHg 73%
    07:00 +30°C° 0.3 mm 2 m/s 719 mmHg 69%
    08:00 +31°C° 0.7 mm 2 m/s 719 mmHg 69%
    09:00 +31°C° 0.7 mm 2 m/s 720 mmHg 68%
    10:00 +31°C° 0.7 mm 3 m/s 720 mmHg 68%
    11:00 +31°C° 0.9 mm 3 m/s 720 mmHg 67%
    12:00 +32°C° 0.9 mm 4 m/s 719 mmHg 67%
    13:00 +32°C° 0.9 mm 4 m/s 719 mmHg 66%
    14:00 +31°C° 0 mm 3 m/s 719 mmHg 62%
    15:00 +32°C° 0 mm 2 m/s 718 mmHg 59%
    16:00 +32°C° 0 mm 1 m/s 718 mmHg 55%
    17:00 +32°C° 0 mm 1 m/s 718 mmHg 57%
    18:00 +31°C° 0 mm 1 m/s 719 mmHg 59%
    19:00 +31°C° 0 mm 1 m/s 719 mmHg 61%
    20:00 +31°C° 0 mm 1 m/s 719 mmHg 62%
    21:00 +28°C° 0 mm 0 m/s 720 mmHg 62%
    22:00 +28°C° 0 mm 0 m/s 720 mmHg 62%
    23:00 +28°C° 0 mm 0 m/s 720 mmHg 63%
    Voir plus